Theta_e
346 344 333 328 313 310 305 310 321 314 317 326 326 323 321 325 318 311 342 346 346 349 355 358 361 360 359 358 359 358 360 360 361 359 358 358 357 356 355 356 357 357 355 356 358 359 360 360 358
331 333 326 323 307 301 303 315 310 313 321 327 327 324 322 326 338 338 340 345 346 349 351 355 361 360 357 356 358 359 360 360 360 358 356 356 356 354 354 357 358 356 356 357 358 358 359 359 359
327 328 322 317 311 303 305 308 312 316 324 323 324 327 325 330 340 341 346 347 346 346 348 352 360 360 357 358 358 359 359 359 359 357 356 354 353 353 355 356 358 357 357 356 355 355 357 359 358
322 326 323 310 306 311 313 317 320 318 323 324 325 321 327 339 341 344 348 347 345 345 346 355 358 358 358 357 357 357 358 360 359 357 355 352 350 351 354 356 357 357 355 353 352 354 357 360 358
319 314 311 308 308 312 315 318 318 316 322 324 324 321 322 340 346 347 346 347 344 346 348 350 357 356 356 355 356 356 358 359 359 356 354 351 350 351 353 356 358 357 356 353 352 352 357 359 358
311 311 301 301 309 314 316 319 315 316 321 323 323 322 321 342 343 344 346 345 347 346 347 349 355 356 356 356 356 357 358 358 358 357 355 352 351 351 354 357 357 356 354 355 357 355 358 357 357
307 303 302 307 310 312 316 315 318 320 320 321 326 319 323 338 342 344 344 346 346 346 346 346 348 349 355 357 357 357 357 357 357 356 355 353 351 351 355 356 356 356 352 356 357 357 358 356 355
310 305 301 310 310 310 316 316 316 321 322 331 329 317 315 327 338 341 344 344 343 344 343 341 342 342 345 348 353 355 355 355 356 355 354 354 352 351 355 355 357 354 354 355 356 358 358 355 352
308 299 297 302 311 313 318 310 314 320 325 324 328 325 326 329 340 339 336 337 337 340 340 341 339 340 342 344 349 354 354 355 354 353 354 351 342 342 348 352 355 350 357 356 357 358 357 354 351
303 297 300 307 315 314 315 314 315 319 323 323 324 326 327 330 334 332 330 330 331 334 337 340 339 339 340 347 343 343 346 346 345 346 345 343 339 339 347 353 356 354 357 358 358 355 356 348 341
302 301 304 309 313 318 311 311 318 320 318 323 320 323 325 326 328 330 330 331 330 333 335 338 338 339 339 341 340 339 339 340 341 342 340 340 340 338 346 341 342 348 356 352 353 348 347 337 336
299 305 306 310 314 316 308 312 317 319 320 328 326 326 326 325 323 327 330 331 330 331 332 334 336 335 335 337 341 336 336 336 336 337 336 336 335 338 335 330 330 337 346 346 347 343 340 338 335
300 304 306 311 310 308 312 311 310 316 325 329 328 327 326 325 324 323 325 328 330 328 330 331 332 331 329 336 336 334 333 334 334 334 336 338 339 332 334 333 330 327 332 341 341 341 340 329 330
302 303 304 305 304 305 308 308 311 321 327 326 326 325 326 325 324 321 319 319 325 326 327 328 327 328 331 332 330 332 332 332 332 332 336 341 340 336 336 337 335 333 329 333 337 337 334 326 329
303 300 303 303 304 304 307 306 306 324 326 324 324 324 325 325 324 322 319 319 320 321 326 325 325 324 330 328 326 329 330 331 332 334 338 345 341 340 335 335 330 335 332 329 333 333 329 327 328
300 296 294 302 306 308 307 300 311 324 323 322 323 324 324 324 324 323 319 320 318 321 323 324 327 327 328 326 324 328 329 331 334 336 341 346 345 344 339 335 329 336 336 330 331 330 329 328 327
295 292 294 298 302 304 303 300 308 323 322 320 321 322 322 323 323 320 320 319 318 320 323 322 327 326 326 324 323 328 329 333 335 339 342 346 348 346 341 339 336 338 334 327 331 327 329 326 325
291 291 292 294 301 299 298 302 306 321 320 319 319 320 320 320 320 319 318 319 319 320 323 323 326 328 327 329 331 333 337 335 338 341 344 346 348 345 341 342 337 337 331 329 324 322 327 328 328
296 294 294 297 302 298 296 297 301 312 315 315 320 319 319 319 321 319 318 319 319 318 322 323 322 323 331 332 331 331 333 335 340 341 345 347 347 347 346 345 342 338 332 331 326 324 322 327 327
297 295 295 298 301 297 298 298 300 301 302 305 307 319 320 319 318 317 317 318 319 319 323 324 325 325 328 334 331 331 332 333 336 339 341 346 347 346 345 347 341 337 333 331 328 323 323 322 328
295 295 296 296 298 298 297 296 298 304 302 303 306 310 319 321 320 318 316 317 318 319 322 324 326 327 327 329 332 332 334 334 332 335 337 341 347 346 347 346 339 336 336 333 331 325 323 320 326
293 300 301 300 295 290 297 289 295 299 302 303 308 316 315 320 321 318 317 317 320 324 326 325 324 329 328 329 334 333 332 331 334 336 337 337 345 346 347 348 341 338 338 336 334 331 323 321 323
298 300 300 301 294 291 294 290 293 298 299 305 316 321 323 324 323 323 325 328 329 325 327 326 325 330 330 330 330 333 331 332 331 330 332 333 337 345 347 349 344 340 338 338 337 331 327 326 323
304 300 297 294 292 288 292 291 291 299 303 311 318 321 324 326 328 329 331 332 332 334 335 330 328 327 329 331 330 328 329 331 330 331 330 331 334 339 344 349 349 344 341 339 338 335 329 327 325
298 292 287 288 287 287 295 296 300 309 314 315 317 319 322 325 327 327 328 328 326 324 327 332 332 331 330 332 333 333 330 327 328 328 329 330 330 334 338 345 348 347 344 342 340 337 332 328 326
295 294 288 284 286 290 298 296 304 313 315 316 316 317 317 318 322 323 321 319 318 318 319 323 323 323 328 329 326 334 335 335 335 331 332 332 332 333 334 341 347 348 346 343 341 339 334 333 329
297 293 297 291 290 290 295 304 312 313 313 314 313 314 313 314 315 314 315 315 314 314 314 315 318 318 318 323 325 325 327 330 329 332 335 336 334 335 335 337 344 347 346 345 342 339 335 334 331
299 302 293 291 287 286 292 296 301 307 309 311 310 309 310 312 312 312 312 311 311 312 313 313 313 313 314 313 315 318 321 325 328 331 329 333 337 336 336 335 338 345 346 346 343 341 338 334 333
299 295 297 294 292 288 287 297 308 307 310 310 311 311 309 309 310 311 310 309 308 309 309 310 310 311 311 313 313 313 312 315 318 319 322 330 333 332 337 338 334 334 344 345 342 341 340 336 334
301 298 296 291 291 293 291 294 312 310 310 310 309 307 307 311 310 309 309 308 308 307 308 308 308 309 309 309 311 312 313 314 314 313 316 321 323 329 333 335 338 340 339 340 342 341 341 338 334
Wind_Speed
7 5 1 4 4 5 4 7 4 3 7 4 7 10 8 4 1 4 6 12 20 15 12 14 17 17 17 16 16 16 15 14 15 14 13 13 12 11 10 9 8 8 8 8 10 12 15 13 11
5 4 3 1 5 4 5 6 4 4 11 17 12 6 7 3 5 11 9 14 18 16 12 12 18 18 18 17 16 15 15 14 15 15 13 12 10 10 9 8 7 8 8 8 9 11 13 11 11
2 3 2 5 3 1 5 3 9 4 9 5 6 5 5 5 12 11 13 17 15 11 9 13 18 17 18 17 16 15 15 14 15 14 13 11 9 8 8 7 6 7 7 7 7 10 11 11 13
2 2 2 4 5 7 6 14 13 5 3 8 9 6 5 7 17 11 19 17 14 10 7 15 16 16 16 17 16 16 15 14 15 14 12 10 9 7 7 6 5 6 6 6 6 8 9 9 12
2 2 5 5 8 7 5 8 7 5 4 5 2 3 4 4 17 24 20 17 16 11 9 11 16 16 16 17 17 15 13 14 14 13 11 9 7 6 6 5 5 5 4 4 4 7 8 10 14
3 3 4 4 9 9 7 9 5 3 5 6 9 6 4 17 23 18 19 17 16 17 12 11 16 16 15 16 15 14 12 13 13 10 9 7 5 5 4 5 5 4 3 3 5 9 11 12 19
5 4 5 7 3 7 6 9 12 10 7 4 11 6 8 14 15 18 17 15 13 13 12 10 10 13 16 14 14 14 12 12 11 9 7 6 4 4 4 4 3 2 1 1 7 10 12 15 18
4 4 4 5 5 7 6 4 10 15 2 6 13 7 8 14 16 16 14 13 12 11 10 9 7 7 6 7 15 14 13 13 11 10 8 5 5 4 3 3 1 1 1 1 6 9 10 15 20
3 3 5 7 7 8 4 3 2 4 10 1 5 8 15 20 21 18 13 10 8 8 7 8 8 7 6 6 9 13 15 14 12 9 8 5 1 0 3 5 5 3 3 0 4 9 10 12 17
6 5 10 11 7 8 5 5 9 6 7 6 8 15 14 22 20 20 16 13 11 11 11 10 9 9 8 8 6 6 6 4 4 4 4 2 3 4 5 6 7 6 4 2 1 7 10 10 8
6 8 4 14 16 11 6 6 4 14 1 12 21 22 17 16 18 18 17 20 20 16 12 12 12 12 10 8 4 3 3 3 4 5 4 3 3 3 2 1 1 2 3 1 1 1 6 6 9
5 7 7 16 17 8 8 5 9 8 10 16 23 24 20 16 17 19 17 15 14 15 15 14 12 12 11 6 6 5 5 4 4 4 6 4 2 2 3 2 4 2 2 1 2 2 1 7 10
6 8 6 13 10 7 7 6 5 7 16 20 17 18 20 15 13 16 20 17 17 16 15 15 13 13 10 9 7 7 6 5 5 5 6 5 4 4 5 4 3 3 3 3 3 3 0 5 14
5 8 10 5 3 3 5 6 7 3 21 19 20 19 19 19 15 10 11 16 19 17 17 16 15 13 12 9 10 8 7 7 6 5 6 8 5 6 5 5 4 4 4 3 4 4 3 5 10
5 6 9 3 2 4 3 8 7 16 19 21 20 19 20 20 16 18 14 17 20 18 19 18 16 13 15 12 11 8 8 8 7 7 7 9 8 8 6 5 5 6 4 5 4 2 4 5 7
6 4 5 9 10 7 9 10 6 20 22 21 20 18 18 20 21 19 15 18 16 17 19 18 15 16 15 12 9 8 8 7 8 6 5 10 10 10 7 4 5 2 2 4 7 5 5 7 9
7 2 6 11 5 6 4 11 6 21 23 21 18 18 18 17 15 11 13 17 16 17 18 16 15 17 16 10 9 7 8 6 7 7 6 9 11 10 8 5 5 5 4 4 7 3 6 4 5
5 3 4 5 10 1 5 13 4 26 19 20 22 18 18 18 21 14 11 16 17 15 16 16 12 14 15 9 5 3 4 6 4 8 8 9 9 10 7 6 5 5 4 5 3 4 2 4 6
4 0 4 7 7 3 5 3 2 11 9 10 15 15 19 20 15 12 10 14 13 11 13 14 11 9 9 4 4 3 4 3 3 5 10 10 11 13 12 8 7 6 6 6 6 4 6 4 4
7 6 6 8 7 2 6 5 6 4 7 10 13 21 21 14 10 12 11 13 16 14 14 14 16 13 12 9 5 3 4 3 2 2 5 7 9 12 12 10 9 9 6 6 6 5 3 1 5
5 7 6 8 5 4 2 8 6 9 5 5 8 6 14 20 18 16 13 9 11 11 13 15 16 13 9 6 4 3 3 1 1 4 4 7 10 11 10 11 9 11 9 9 6 6 7 5 4
3 4 2 5 2 3 4 6 6 7 10 10 5 9 3 20 9 9 10 8 10 9 10 8 7 10 10 10 9 12 11 12 12 11 7 5 9 12 12 12 12 12 11 12 10 9 6 5 6
8 2 3 1 3 4 7 4 10 6 8 6 9 16 16 12 12 11 11 11 7 6 4 5 6 5 2 5 4 5 6 4 3 2 5 6 6 8 12 12 13 13 13 14 12 8 11 8 8
5 5 8 5 3 5 6 6 6 8 6 9 15 16 20 21 19 18 16 18 13 10 9 3 7 3 3 3 2 2 3 5 2 4 5 5 5 6 8 12 13 14 14 14 12 12 11 12 8
7 8 5 6 5 7 4 8 4 7 13 11 19 17 17 17 17 17 17 15 13 13 12 16 12 5 3 6 5 4 4 5 5 5 6 5 5 5 9 10 12 13 15 15 13 11 12 13 12
6 10 8 5 3 6 4 6 3 5 15 17 17 15 17 18 16 17 16 12 12 13 13 15 14 13 15 10 11 10 5 2 3 6 7 8 7 8 7 8 13 16 15 14 12 10 9 11 12
2 3 7 7 1 3 2 4 5 4 14 17 17 17 15 17 17 15 13 11 10 9 8 9 9 8 8 5 2 5 4 4 4 6 5 8 9 8 11 9 11 15 14 16 15 10 11 10 14
4 5 3 3 4 3 4 3 7 5 12 14 14 13 9 11 15 12 12 9 7 7 7 9 8 6 3 3 3 1 2 3 4 4 7 7 7 7 9 12 12 12 13 14 14 14 13 11 11
6 5 6 6 5 6 2 5 3 5 8 13 11 9 8 8 10 10 8 7 7 6 7 7 8 7 7 7 7 6 4 4 6 5 5 6 6 7 7 8 10 13 12 14 14 16 16 16 16
3 2 5 7 3 0 5 4 5 6 7 9 13 13 12 14 13 10 8 7 8 7 7 7 6 6 6 5 4 5 6 9 9 6 7 6 7 6 6 6 6 9 10 13 15 17 17 19 19
Wind_Direction
143 145 79 31 36 64 283 256 265 74 63 56 77 84 117 51 146 186 121 146 134 139 147 148 147 143 139 138 132 127 125 122 117 112 106 100 98 98 96 95 92 88 81 73 66 68 69 69 69
147 130 29 45 69 30 276 277 232 108 127 108 92 91 66 79 66 122 107 146 139 139 143 146 148 144 143 143 136 132 131 129 122 121 116 111 106 103 100 96 94 94 88 79 74 74 75 74 69
143 174 112 126 120 170 284 290 336 7 151 109 105 47 88 108 121 136 128 136 134 130 135 149 144 143 145 143 141 136 138 137 128 130 127 120 114 109 102 98 94 98 94 87 81 81 86 90 92
138 77 39 71 278 235 205 277 307 282 52 51 117 63 62 198 151 140 135 136 126 128 128 140 140 143 144 144 143 140 145 140 135 137 134 130 120 115 115 108 100 95 92 89 84 85 95 98 110
30 43 27 345 297 265 254 243 255 262 82 43 353 87 61 60 117 130 138 140 135 136 136 138 143 147 148 147 146 148 152 139 139 142 139 135 129 125 114 104 99 91 79 74 82 95 104 95 112
25 54 63 242 258 292 279 241 188 158 105 130 86 91 62 132 132 142 147 146 151 148 147 149 149 151 149 149 150 151 152 137 139 144 145 142 132 116 105 104 105 100 81 90 99 106 106 93 124
126 123 193 256 294 338 319 350 137 148 163 157 136 106 120 152 142 148 150 146 147 144 144 147 150 157 153 152 150 149 146 140 147 150 151 149 140 135 122 118 113 93 71 102 97 108 114 109 110
138 92 150 248 246 262 248 277 146 140 173 101 138 147 168 168 154 142 136 134 138 148 143 139 140 136 142 156 158 152 157 157 157 166 166 165 171 160 137 128 118 78 331 36 96 114 118 119 121
115 30 253 244 215 232 260 220 10 16 117 285 173 138 147 122 129 128 129 121 132 148 149 150 146 142 147 152 169 165 167 166 171 182 178 180 120 210 204 180 197 176 213 179 112 110 106 115 124
137 161 236 216 203 245 221 181 149 91 105 41 77 113 139 127 139 144 151 156 164 165 167 164 157 154 158 168 173 164 171 150 177 184 175 156 173 211 216 203 191 171 196 231 171 118 125 122 137
194 216 223 267 247 221 260 161 117 123 273 162 151 152 155 152 152 154 167 168 178 174 167 174 170 165 170 171 158 153 142 159 200 191 178 179 206 231 219 209 177 158 194 219 255 28 127 130 146
251 242 221 256 260 192 169 178 138 162 187 156 158 158 156 170 160 170 173 177 164 173 173 176 177 169 177 154 166 167 164 180 203 191 180 184 210 174 101 24 313 197 188 198 280 258 186 153 171
212 271 263 246 253 280 167 195 149 178 140 151 155 164 163 173 180 170 175 178 169 171 173 180 174 173 172 163 168 174 180 187 201 188 182 184 184 176 154 186 198 237 239 178 238 226 353 116 138
274 286 286 238 227 217 190 242 107 159 143 150 161 176 174 175 185 187 167 165 174 173 175 176 177 175 165 171 179 179 177 192 191 191 193 187 166 190 198 188 183 219 201 204 218 216 193 157 148
267 336 329 314 351 293 100 313 170 158 151 157 176 182 181 181 181 192 181 173 172 177 174 175 172 174 170 178 181 178 185 184 193 200 190 186 173 192 209 207 181 221 177 205 238 219 162 145 157
349 52 8 298 355 300 90 279 109 158 154 176 185 189 190 187 191 196 179 175 172 166 173 173 171 176 176 181 183 192 184 183 195 199 192 182 189 190 192 205 236 235 225 209 197 167 174 163 158
6 284 324 320 348 275 135 263 223 176 173 178 181 190 191 199 194 201 187 173 174 166 170 169 168 175 178 179 184 193 181 187 197 201 203 180 202 199 190 191 221 209 204 210 182 153 158 165 160
258 323 296 283 292 277 318 239 249 180 174 177 196 186 193 199 199 192 182 177 169 162 171 168 163 172 177 171 159 178 156 198 192 202 200 197 182 199 195 201 211 213 186 208 152 162 168 175 180
220 314 282 269 264 268 300 298 249 165 181 179 200 197 194 205 189 185 176 171 165 151 159 169 158 171 157 145 160 182 196 176 187 192 199 200 185 188 196 205 204 198 200 195 183 172 174 193 141
240 253 265 278 273 61 329 307 293 249 204 205 180 198 201 189 178 184 171 167 167 168 167 172 182 171 180 172 176 158 164 206 171 173 192 203 204 200 192 189 190 192 208 207 193 170 123 219 177
226 185 223 230 324 327 329 328 331 302 297 272 51 157 181 184 186 185 170 159 158 167 180 180 185 181 182 168 126 101 73 35 170 212 203 201 201 205 208 188 189 191 194 213 190 181 182 172 212
184 214 298 333 33 240 42 271 294 294 305 56 39 54 119 186 164 130 135 130 142 167 177 187 184 180 180 179 181 199 205 207 219 223 229 214 197 203 202 199 193 195 202 207 201 194 183 150 184
228 202 244 205 62 64 322 42 270 348 23 95 80 75 66 74 89 99 92 87 69 85 75 86 124 179 150 185 223 199 235 275 354 333 246 242 227 212 210 204 203 203 204 212 203 193 203 194 181
141 64 39 43 58 10 257 132 334 340 138 121 84 76 79 84 83 81 81 80 70 58 50 230 153 93 90 105 46 183 220 239 263 278 274 254 251 236 228 219 210 216 211 211 210 205 199 203 211
78 59 4 358 15 224 67 67 299 352 66 79 93 81 79 82 86 83 77 72 60 52 46 54 71 37 87 54 4 299 252 271 251 240 255 259 260 242 231 210 220 219 217 219 217 208 205 202 201
182 144 151 188 201 257 5 137 144 97 82 84 78 83 81 81 81 79 79 75 72 62 58 62 58 62 66 39 27 10 344 301 260 241 246 248 245 257 259 228 226 227 220 223 218 214 214 210 215
194 179 181 106 319 73 182 61 50 106 88 83 86 86 81 86 88 91 83 71 59 63 65 75 76 66 69 87 40 14 20 349 349 334 292 268 259 253 261 244 228 227 223 220 218 217 218 215 216
136 173 68 8 126 181 276 181 187 160 111 100 97 90 89 93 95 99 99 101 87 65 44 51 52 63 68 100 144 184 277 283 269 277 305 321 306 279 260 262 255 241 230 221 214 221 219 207 210
351 357 60 115 115 157 154 270 214 150 125 111 108 102 94 69 73 72 65 59 70 74 69 53 37 32 19 3 344 343 330 304 310 304 288 281 290 299 304 275 264 262 252 231 225 228 226 216 216
165 9 117 113 240 75 138 289 356 146 120 93 87 90 79 81 86 75 68 57 43 35 28 25 23 26 350 335 345 332 327 329 320 280 274 275 279 283 288 305 318 301 280 259 238 236 233 227 222